Regional Weather Roundup
Issued by NWS

Home | Current Version | Previous Version | Text Only | Print | Product List | Glossary Off
Versions: 1 2 3 4 5 6 7 8 9 10 11 12 13 14 15 16 17 18 19 20 21 22 23 24 25 26 27 28 29 30 31 32 33 34 35 36 37 38 39 40 41 42 43 44 45 46 47 48 49 50

000
ASUS43 KLOT 201506
RWRIL

ILLINOIS REGIONAL WEATHER ROUNDUP
NATIONAL WEATHER SERVICE CHICAGO/ROMEOVILLE IL
1000 AM CDT MON OCT 20 2014

NOTE: "FAIR" INDICATES FEW OR NO CLOUDS BELOW 12,000 FEET WITH NO
SIGNIFICANT WEATHER AND/OR OBSTRUCTIONS TO VISIBILITY.

* THESE STATIONS ARE NOT UNDER NWS QUALITY CONTROL. THEY ALSO MAY NOT
  REPORT WEATHER SUCH AS PRECIPITATION OR FOG.

ILZ001-002-007-009-015-016-024-201600-
NORTHWEST ILLINOIS

CITY           SKY/WX    TMP DP  RH WIND       PRES   REMARKS
MOLINE         SUNNY     56  45  66 N14       29.94R
STERLING*      SUNNY     57  46  67 N15G21    29.91R
SAVANNA*       SUNNY     57  44  62 NW8       29.92R
$$

ILZ003-004-008-010-011-017-018-201600-
NORTH CENTRAL ILLINOIS

CITY           SKY/WX    TMP DP  RH WIND       PRES   REMARKS
ROCKFORD       MOSUNNY   55  45  68 N14       29.90R
FREEPORT*      SUNNY     54  45  71 NW13      29.91R
ROCHELLE*      SUNNY     54  45  73 NW9       29.89R
DE KALB*       SUNNY     52  45  76 NW15G21   29.87R
PERU*          SUNNY     56  46  70 NW12G21   29.90R
$$

ILZ005-006-012>014-019>023-201600-
NORTHEAST ILLINOIS

CITY           SKY/WX    TMP DP  RH WIND       PRES   REMARKS
CHICAGO-OHARE  MOSUNNY   54  45  71 NW10      29.84R
CHICAGO-MIDWAY MOSUNNY   57  47  69 W8        29.85R
AURORA         SUNNY     56  45  66 NW13      29.86S
LANSING*       SUNNY     54  47  75 W5        29.84S
JOLIET*        SUNNY     54  45  73 NW9       29.86S
WAUKEGAN       CLOUDY    52  45  77 NW8       29.83R
DUPAGE AIRPORT SUNNY     55  46  71 N10       29.84S
WHEELING       MOSUNNY   56  46  69 NW8       29.85R
MORRIS*        SUNNY     55  48  76 NW7       29.85S
ROMEOVILLE*    SUNNY     54  44  71 NW6       29.86R
NORTHERLY ISL    N/A     55  45  68 W12         N/A
$$

LMZ740>746-201600-
SOUTHERN LAKE MICHIGAN

STATION/POSITION SKY/WX   TEMP    WIND        PRES    VSBY  WAVE
                          AIR SEA DIR/SP/G                  HT/PER
                          (F)     (DEG/KT/KT) (MB)    (MI)  (FT/S)
SOUTHERN BUOY              53 55  300/ 10/ 12 1010.2R         3/ 5
WAUKEGAN HARBOR            54     320/ 11/ 15   N/A
HARRISON CRIB              52     280/ 11/ 12   N/A
BURNHAM HARBOR             55     260/  9/ 11   N/A
CALUMET HARBOR             54     270/  4/  8 1009.4R
MICHIGAN CITY              52     220/ 12/ 14   N/A
$$

ILZ025>027-034>036-040-047-049-050-058-095>099-201600-
WEST-CENTRAL ILLINOIS

CITY           SKY/WX    TMP DP  RH WIND       PRES   REMARKS
QUINCY         SUNNY     58  48  69 N10       29.99R
GALESBURG*     SUNNY     56  46  71 NW10      29.94S
MACOMB*        SUNNY     57  47  69 NW12      29.99R
JACKSONVILLE*  SUNNY     62  49  63 NW10      29.96R
PITTSFIELD*    SUNNY     61  49  65 NW8       29.99R
$$

ILZ028>032-037-038-041>044-048-051>054-059>061-201600-
CENTRAL ILLINOIS

CITY           SKY/WX    TMP DP  RH WIND       PRES   REMARKS
PONTIAC        SUNNY     57  48  72 W14       29.88S
BLOOMINGTON    SUNNY     57  48  72 NW15      29.92R
DECATUR        SUNNY     60  51  72 W12       29.94R
PEORIA         SUNNY     58  45  62 NW9       29.93R
LACON*         SUNNY     56  46  67 NW8       29.91R
LINCOLN*       SUNNY     59  48  66 NW8       29.92R
SPRINGFIELD    SUNNY     62  49  62 W9        29.96R
TAYLORVILLE    SUNNY     61  50  67 W13       29.94R
$$

ILZ033-039-045-046-055>057-062-063-201600-
EAST-CENTRAL ILLINOIS

CITY           SKY/WX    TMP DP  RH WIND       PRES   REMARKS
CHAMPAIGN      SUNNY     59  50  72 MISG      29.91R
DANVILLE*      PTSUNNY   55  50  82 W14       29.87S
RANTOUL*       MOSUNNY   59  48  65 W13G20    29.90S
MATTOON        MOSUNNY   59  50  72 SW9       29.92S
PARIS*         MOSUNNY   60  51  74 W12       29.92S
$$

ILZ079-100>102-201600-
SOUTHWEST ILLINOIS

CITY           SKY/WX    TMP DP  RH WIND       PRES   REMARKS
BELLEVILLE     SUNNY     63  54  70 VRB5      29.98S
CAHOKIA*       SUNNY     63  52  67 W10       29.99S
SPARTA*        SUNNY     62  52  68 W7        30.01S
$$

ILZ064>066-069>071-074>076-080>082-084>086-088>090-092>094-201600-
SOUTH-CENTRAL ILLINOIS

CITY           SKY/WX    TMP DP  RH WIND       PRES   REMARKS
CARBONDALE     PTSUNNY   61  50  67 SW10      30.01F
CAIRO*         PTSUNNY   59  50  72 SW7       30.05F
EFFINGHAM*     SUNNY     60  48  63 SW9       29.94F
MARION         PTSUNNY   59  52  77 SW9       30.02F
MT. VERNON     PTSUNNY   61  48  63 SW10      29.99F
CENTRALIA*     SUNNY     61  49  64 W9G18     29.98S
SALEM*         SUNNY     63  53  70 W9G17     29.97S
METROPOLIS*    CLOUDY    56  52  85 SW6       30.04S
$$

ILZ067-068-072-073-078-083-087-091-201600-
SOUTHEAST ILLINOIS

CITY           SKY/WX    TMP DP  RH WIND       PRES   REMARKS
LAWRENCEVILLE  PTSUNNY   57  49  74 SW12      29.97F
FLORA*         MOSUNNY   60  49  68 W10G17    29.97S
FAIRFIELD*     CLOUDY    58  50  75 SW8       29.97F
HARRISBURG*    PTSUNNY   57  50  78 SW7       30.02F
ROBINSON*      PTSUNNY   60  51  73 SW12      29.96S
CARMI*         PTSUNNY   59  52  79 SW9       29.99F
$$

ABBREVIATIONS USED IN REMARKS
   TC - TEMPERATURE IN CELSIUS
  WCI - WIND CHILL INDEX
   HX - HEAT INDEX
  VSB - VISIBILITY
$$



USA.gov is the U.S. government's official web portal to all federal, state and local government web resources and services.